Starlink 35946

operational
NORAD ID: 66522 Int'l Des: 2025-265 Owner: SPXS Country: US Constellation: starlink
LEOCIRCULAR

About Starlink 35946

Description loading...

Live Position

Loading 3D Globe...

Upcoming Passes

Altitude History

Altitude vs Time

uPlot chart will show altitude changes over time

Two-Line Element Set

1 66522U 25265G 26041.18318393 .00022743 00000-0 83274-3 0 9995
2 66522 43.0012 73.5299 0001191 239.9828 120.0905 15.27607365 12902
Epoch: Feb 10, 2026 • Age: 12 hours

Current Status

Altitude 483.4 km
Velocity 7.63 km/s
Sub-Earth Point -7.36°S, 125.26°W
Launch Date Nov 19, 2025
Age 0.2 years
Type internet

Technical Details

Classification Payload
Mass 575.00 kg
Dry Mass 530.00 kg
Total Mass 575.00 kg
Length 0.30 m
Diameter 4.10 m
Span 29.00 m
Shape Box + pan
Manufacturer SPXS
Bus Type Starlink V2MO
Phase Status In Orbit
Owner/State SPXS/US

Large Constellations

Loading constellations...